DW3611 Weather Reports


Display with metric or nautical units.
time (UTC)temp
F
wind
direction
speed
MPH
gust
MPH
rain 1hr
in
rain 24hr
in
rain mn
in
humidity
%
barometer
mb
20260901172011 90 5 2.0 3.0 0.00 0.00 0.00 62 1016.0
20260901171513 90 65 2.0 5.0 0.00 0.00 0.00 62 1016.0
20260901171010 90 138 2.0 6.0 0.00 0.00 0.00 61 1016.2
20260901170513 91 19 2.0 7.0 0.00 0.00 0.00 60 1016.2
20260901170033 91 27 2.0 7.0 0.00 0.00 0.00 61 1016.3
20260901165509 91 55 2.0 5.0 0.00 0.00 0.00 63 1016.4
20260901165015 90 285 1.0 7.0 0.00 0.00 0.00 62 1016.6
20260901164532 91 51 1.0 8.0 0.00 0.00 0.00 62 1016.5
20260901164009 90 175 1.0 8.0 0.00 0.00 0.00 65 1016.6
20260901163509 88 68 0.0 6.0 0.00 0.00 0.00 68 1016.7
20260901163016 87 81 0.0 6.0 0.00 0.00 0.00 69 1016.8
20260901162510 87 105 1.0 8.0 0.00 0.00 0.00 69 1016.8
20260901162008 87 39 1.0 8.0 0.00 0.00 0.00 68 1017.0
20260901161527 87 124 1.0 5.0 0.00 0.00 0.00 69 1016.9
20260901161002 86 57 1.0 3.0 0.00 0.00 0.00 70 1017.0
20260901160511 86 42 1.0 6.0 0.00 0.00 0.00 69 1017.1
20260901160033 86 67 0.0 6.0 0.00 0.00 0.00 69 1017.2
20260901155508 86 71 1.0 5.0 0.00 0.00 0.00 69 1017.2
20260901155006 87 51 1.0 5.0 0.00 0.00 0.00 69 1017.1
20260901154523 86 17 1.0 3.0 0.00 0.00 0.00 70 1017.0
20260901154003 86 27 1.0 5.0 0.00 0.00 0.00 71 1017.0
20260901153510 86 350 1.0 5.0 0.00 0.00 0.00 73 1017.1
20260901153015 86 84 1.0 5.0 0.00 0.00 0.00 73 1017.1
20260901152509 85 38 0.0 4.0 0.00 0.00 0.00 73 1017.0
20260901152013 85 294 1.0 4.0 0.00 0.00 0.00 75 1017.1
20260901151518 85 44 1.0 4.0 0.00 0.00 0.00 76 1017.1
20260901151015 85 128 1.0 4.0 0.00 0.00 0.00 76 1017.1
20260901150513 85 110 1.0 4.0 0.00 0.00 0.00 75 1017.1
20260901150022 85 88 1.0 4.0 0.00 0.00 0.00 76 1017.1
20260901145512 85 60 1.0 4.0 0.00 0.00 0.00 77 1017.2
20260901145014 85 70 1.0 4.0 0.00 0.00 0.00 76 1017.4
20260901144504 85 198 1.0 5.0 0.00 0.00 0.00 77 1017.4
20260901144003 85 25 1.0 5.0 0.00 0.00 0.00 79 1017.3
20260901143509 84 107 1.0 4.0 0.00 0.00 0.00 80 1017.3
20260901143008 83 46 1.0 4.0 0.00 0.00 0.00 81 1017.3
20260901142512 82 122 0.0 3.0 0.00 0.00 0.00 83 1017.3
20260901142011 81 31 0.0 3.0 0.00 0.00 0.00 84 1017.3
20260901141515 81 61 1.0 2.0 0.00 0.00 0.00 85 1017.2
20260901141015 80 275 1.0 2.0 0.00 0.00 0.00 88 1017.4
20260901140511 79 58 0.0 0.0 0.00 0.00 0.00 90 1017.4
20260901140023 77 173 0.0 0.0 0.00 0.00 0.00 92 1017.3
20260901135514 76 50 0.0 0.0 0.00 0.00 0.00 92 1017.1
20260901135014 76 49 0.0 0.0 0.00 0.00 0.00 91 1017.2
20260901134540 75 49 0.0 0.0 0.00 0.00 0.00 92 1017.3
20260901134015 75 167 0.0 0.0 0.00 0.00 0.00 91 1017.3
20260901133515 74 167 0.0 1.0 0.00 0.00 0.00 91 1017.2
20260901133007 74 167 0.0 1.0 0.00 0.00 0.00 91 1017.2
20260901132518 74 167 0.0 1.0 0.00 0.00 0.00 91 1017.2
20260901132016 73 167 0.0 0.0 0.00 0.00 0.00 91 1017.1
20260901131533 73 167 0.0 0.0 0.00 0.00 0.00 91 1017.0
20260901131024 73 167 0.0 0.0 0.00 0.00 0.00 90 1017.0
20260901130525 73 167 0.0 0.0 0.00 0.00 0.00 90 1017.1
20260901130021 72 167 0.0 0.0 0.00 0.00 0.00 90 1017.2
20260901125512 72 167 0.0 0.0 0.00 0.00 0.00 90 1017.3
20260901125017 72 167 0.0 0.0 0.00 0.00 0.00 90 1017.1
20260901124529 72 167 0.0 0.0 0.00 0.00 0.00 90 1016.9
20260901124013 72 167 0.0 0.0 0.00 0.00 0.00 90 1016.8
20260901123514 72 167 0.0 0.0 0.00 0.00 0.00 89 1016.8
20260901123027 72 167 0.0 0.0 0.00 0.00 0.00 89 1016.8
20260901122504 72 167 0.0 0.0 0.00 0.00 0.00 89 1016.8
20260901122015 72 167 0.0 0.0 0.00 0.00 0.00 89 1016.7
20260901121513 72 167 0.0 0.0 0.00 0.00 0.00 89 1016.6
20260901121007 72 167 0.0 0.0 0.00 0.00 0.00 89 1016.5
20260901120520 72 167 0.0 0.0 0.00 0.00 0.00 89 1016.4
20260901120017 72 167 0.0 0.0 0.00 0.00 0.00 89 1016.3
20260901115517 72 167 0.0 0.0 0.00 0.00 0.00 89 1016.4
20260901115014 72 167 0.0 0.0 0.00 0.00 0.00 89 1016.4
20260901114527 72 167 0.0 0.0 0.00 0.00 0.00 89 1016.4
20260901114016 73 167 0.0 0.0 0.00 0.00 0.00 89 1016.3
20260901113514 73 167 0.0 0.0 0.00 0.00 0.00 89 1016.4
20260901113044 73 167 0.0 0.0 0.00 0.00 0.00 89 1016.4
20260901112517 73 167 0.0 0.0 0.00 0.00 0.00 89 1016.5
20260901112017 73 167 0.0 0.0 0.00 0.00 0.00 89 1016.4
20260901111530 73 167 0.0 0.0 0.00 0.00 0.00 89 1016.4
20260901111016 73 167 0.0 0.0 0.00 0.00 0.00 88 1016.4
20260901110506 73 167 0.0 0.0 0.00 0.00 0.00 88 1016.3
20260901110015 73 167 0.0 0.0 0.00 0.00 0.00 88 1016.4
20260901105508 73 167 0.0 0.0 0.00 0.00 0.00 88 1016.3
20260901105011 73 167 0.0 0.0 0.00 0.00 0.00 88 1016.2
20260901104529 73 167 0.0 0.0 0.00 0.00 0.00 87 1016.2
20260901104018 73 167 0.0 0.0 0.00 0.00 0.00 87 1016.1
20260901103514 73 167 0.0 0.0 0.00 0.00 0.00 87 1016.1
20260901103028 73 167 0.0 0.0 0.00 0.00 0.00 87 1016.2
20260901102517 73 167 0.0 0.0 0.00 0.00 0.00 86 1016.0
20260901102015 73 167 0.0 0.0 0.00 0.00 0.00 86 1016.0
20260901101546 73 167 0.0 0.0 0.00 0.00 0.00 86 1015.9
20260901101019 73 167 0.0 0.0 0.00 0.00 0.00 86 1015.9
20260901100517 74 167 0.0 0.0 0.00 0.00 0.00 87 1016.1
20260901100035 74 167 0.0 0.0 0.00 0.00 0.00 87 1016.1
20260901095517 74 167 0.0 0.0 0.00 0.00 0.00 86 1016.0
20260901095011 74 167 0.0 0.0 0.00 0.00 0.00 86 1016.0
20260901094533 74 167 0.0 0.0 0.00 0.00 0.00 87 1016.0
20260901094020 74 167 0.0 0.0 0.00 0.00 0.00 86 1016.2
20260901093515 74 173 0.0 0.0 0.00 0.00 0.00 87 1016.2
20260901093025 74 173 0.0 0.0 0.00 0.00 0.00 87 1016.2
20260901092519 75 170 0.0 0.0 0.00 0.00 0.00 87 1016.2
20260901092014 75 169 0.0 0.0 0.00 0.00 0.00 86 1016.2
20260901091504 75 169 0.0 0.0 0.00 0.00 0.00 86 1016.3
20260901091005 75 170 0.0 0.0 0.00 0.00 0.00 85 1016.3
20260901090503 75 169 0.0 0.0 0.00 0.00 0.00 85 1016.3
20260901090007 75 169 0.0 0.0 0.00 0.00 0.00 84 1016.2
20260901085507 75 169 0.0 0.0 0.00 0.00 0.00 84 1016.2
20260901085008 75 169 0.0 0.0 0.00 0.00 0.00 83 1016.2
20260901084526 75 169 0.0 0.0 0.00 0.00 0.00 83 1016.2
20260901084023 75 169 0.0 0.0 0.00 0.00 0.00 83 1016.1
20260901083521 75 169 0.0 0.0 0.00 0.00 0.00 82 1016.1
20260901083018 75 169 0.0 0.0 0.00 0.00 0.00 82 1016.1
20260901082512 76 169 0.0 0.0 0.00 0.00 0.00 82 1016.2
20260901082013 76 169 0.0 0.0 0.00 0.00 0.00 83 1016.2
20260901081527 76 213 0.0 0.0 0.00 0.00 0.00 83 1016.1
20260901081005 76 360 0.0 0.0 0.00 0.00 0.00 82 1016.2
20260901080503 76 360 0.0 0.0 0.00 0.00 0.00 82 1016.2
20260901080006 76 360 0.0 0.0 0.00 0.00 0.00 82 1016.2
20260901075504 76 211 0.0 0.0 0.00 0.00 0.00 81 1016.2
20260901075004 77 192 0.0 0.0 0.00 0.00 0.00 81 1016.1
20260901074509 77 193 0.0 0.0 0.00 0.00 0.00 81 1016.1
20260901074008 77 192 0.0 0.0 0.00 0.00 0.00 81 1016.1
20260901073518 77 192 0.0 0.0 0.00 0.00 0.00 81 1016.1
20260901073037 77 191 0.0 0.0 0.00 0.00 0.00 81 1016.0
20260901072510 77 190 0.0 0.0 0.00 0.00 0.00 80 1015.9
20260901072011 77 180 0.0 0.0 0.00 0.00 0.00 80 1016.1
20260901071521 78 179 0.0 0.0 0.00 0.00 0.00 79 1016.2
20260901071014 78 178 0.0 0.0 0.00 0.00 0.00 79 1016.2
20260901070514 78 177 0.0 0.0 0.00 0.00 0.00 80 1016.2
20260901070028 78 174 0.0 0.0 0.00 0.00 0.00 79 1016.4
20260901065504 78 171 0.0 0.0 0.00 0.00 0.00 80 1016.4
20260901065006 79 171 0.0 0.0 0.00 0.00 0.00 80 1016.3
20260901064518 79 171 0.0 0.0 0.00 0.00 0.00 79 1016.3
20260901064007 79 170 0.0 0.0 0.00 0.00 0.00 79 1016.5
20260901063511 79 178 0.0 0.0 0.00 0.00 0.00 78 1016.5
20260901063031 79 179 0.0 0.0 0.00 0.00 0.00 78 1016.6
20260901062508 79 179 0.0 0.0 0.00 0.00 0.00 78 1016.5
20260901062017 79 177 0.0 0.0 0.00 0.00 0.00 78 1016.5
20260901061520 80 175 0.0 0.0 0.00 0.00 0.00 78 1016.6
20260901061011 80 167 0.0 0.0 0.00 0.00 0.00 78 1016.5
20260901060517 80 165 0.0 0.0 0.00 0.00 0.00 78 1016.5
20260901060034 80 138 0.0 0.0 0.00 0.00 0.00 78 1016.5
20260901055517 80 138 0.0 0.0 0.00 0.00 0.00 77 1016.6
20260901055022 80 360 0.0 0.0 0.00 0.00 0.00 76 1016.5
20260901054529 81 90 0.0 0.0 0.00 0.00 0.00 77 1016.5
20260901054015 81 86 0.0 0.0 0.00 0.00 0.00 76 1016.5
20260901053504 81 166 0.0 0.0 0.00 0.00 0.00 76 1016.5
20260901053008 81 167 0.0 0.0 0.00 0.00 0.00 75 1016.5
20260901052509 81 167 0.0 0.0 0.00 0.00 0.00 75 1016.4
20260901052009 81 167 0.0 0.0 0.00 0.00 0.00 75 1016.4
20260901051515 81 167 0.0 0.0 0.00 0.00 0.00 74 1016.4
20260901051011 81 167 0.0 0.0 0.00 0.00 0.00 74 1016.4
20260901050512 82 167 0.0 0.0 0.00 0.00 0.00 74 1016.3
20260901050032 82 167 0.0 0.0 0.00 0.00 0.00 73 1016.3
20260901045518 82 167 0.0 0.0 0.00 0.00 0.00 73 1016.3
20260901045016 82 167 0.0 4.0 0.00 0.00 0.00 74 1016.2
20260901044525 82 167 0.0 4.0 0.00 0.00 0.00 74 1016.2
20260901044015 82 167 0.0 3.0 0.00 0.00 0.00 73 1016.1
20260901043518 82 211 0.0 3.0 0.00 0.00 0.00 73 1016.2
20260901043037 82 263 0.0 3.0 0.00 0.00 0.00 73 1016.2
20260901042527 82 175 0.0 1.0 0.00 0.00 0.00 72 1016.2
20260901042029 82 175 0.0 1.0 0.00 0.00 0.00 72 1016.2
20260901041515 82 175 0.0 2.0 0.00 0.00 0.00 72 1016.2
20260901041009 83 175 0.0 2.0 0.00 0.00 0.00 71 1016.2
20260901040511 83 218 0.0 1.0 0.00 0.00 0.00 70 1016.2
20260901040018 83 217 0.0 1.0 0.00 0.00 0.00 70 1016.1
20260901035524 83 360 0.0 0.0 0.00 0.00 0.00 69 1016.2
20260901035019 83 360 0.0 0.0 0.00 0.00 0.00 69 1016.2
20260901034529 84 360 0.0 1.0 0.00 0.00 0.00 69 1016.1
20260901034016 84 360 0.0 2.0 0.00 0.00 0.00 69 1016.1
20260901033518 84 360 0.0 2.0 0.00 0.00 0.00 69 1016.1
20260901033039 84 360 0.0 1.0 0.00 0.00 0.00 68 1016.0
20260901032518 84 360 0.0 1.0 0.00 0.00 0.00 68 1015.9
20260901032016 84 360 0.0 0.0 0.00 0.00 0.00 67 1015.9
20260901031535 85 360 0.0 0.0 0.00 0.00 0.00 67 1015.8
20260901031011 85 360 0.0 0.0 0.00 0.00 0.00 67 1015.7
20260901030509 85 360 0.0 1.0 0.00 0.00 0.00 66 1015.6
20260901030034 85 360 0.0 2.0 0.00 0.00 0.00 66 1015.6
20260901025513 85 360 0.0 2.0 0.00 0.00 0.00 66 1015.6
20260901025022 85 360 0.0 0.0 0.00 0.00 0.00 65 1015.5
20260901024525 86 360 0.0 0.0 0.00 0.00 0.00 65 1015.4
20260901024016 86 277 0.0 1.0 0.00 0.00 0.00 64 1015.4
20260901023516 86 225 0.0 2.0 0.00 0.00 0.00 64 1015.3
20260901023034 86 219 0.0 2.0 0.00 0.00 0.00 64 1015.3
20260901022502 86 5 0.0 2.0 0.00 0.00 0.00 64 1015.4
20260901022002 87 18 0.0 2.0 0.00 0.00 0.00 63 1015.2
20260901021508 87 194 0.0 2.0 0.00 0.00 0.00 63 1015.1
20260901021005 87 92 0.0 2.0 0.00 0.00 0.00 62 1015.1
20260901020511 87 292 0.0 4.0 0.00 0.00 0.00 62 1015.1
20260901020036 87 298 0.0 4.0 0.00 0.00 0.00 62 1015.1
20260901015509 88 265 0.0 2.0 0.00 0.00 0.00 61 1015.1
20260901015009 88 158 0.0 4.0 0.00 0.00 0.00 61 1014.9
20260901014519 88 136 1.0 6.0 0.00 0.00 0.00 60 1014.9
20260901014013 88 240 0.0 6.0 0.00 0.00 0.00 60 1014.9
20260901013513 89 294 0.0 4.0 0.00 0.00 0.00 59 1014.8
20260901013025 89 178 0.0 4.0 0.00 0.00 0.00 58 1014.8
20260901012503 89 350 0.0 5.0 0.00 0.00 0.00 58 1014.7
20260901012003 89 148 2.0 5.0 0.00 0.00 0.00 57 1014.7
20260901011507 90 127 0.0 9.0 0.00 0.00 0.00 55 1014.6
20260901011002 90 70 1.0 9.0 0.00 0.00 0.00 55 1014.7
20260901010510 91 5 1.0 5.0 0.00 0.00 0.00 54 1014.6
20260901010010 91 167 0.0 0.0 0.00 0.00 0.00 53 1014.5
20260901005512 91 167 0.0 0.0 0.00 0.00 0.00 51 1014.4
20260901005008 92 167 0.0 0.0 0.00 0.00 0.00 51 1014.3
20260901004520 92 134 0.0 3.0 0.00 0.00 0.00 51 1014.3
20260901004010 92 134 0.0 3.0 0.00 0.00 0.00 50 1014.3
20260901003513 92 259 0.0 1.0 0.00 0.00 0.00 50 1014.3
20260901003018 92 142 0.0 2.0 0.00 0.00 0.00 50 1014.3
20260901002514 92 272 0.0 2.0 0.00 0.00 0.00 50 1014.3
20260901002012 92 190 0.0 2.0 0.00 0.00 0.00 50 1014.3
20260901001537 92 182 0.0 2.0 0.00 0.00 0.00 50 1014.3
20260901001016 92 127 0.0 4.0 0.00 0.00 0.00 50 1014.3
20260901000515 93 89 0.0 4.0 0.00 0.00 0.00 48 1014.2
20260901000030 93 248 0.0 4.0 0.00 0.00 0.00 48 1014.2
20260831235504 93 86 0.0 4.0 0.00 0.00 0.00 48 1014.1
20260831235016 93 150 0.0 3.0 0.00 0.00 0.00 49 1014.1
20260831234512 93 55 0.0 2.0 0.00 0.00 0.00 49 1014.0
20260831234009 94 60 0.0 5.0 0.00 0.00 0.00 48 1014.1
20260831233523 94 65 1.0 5.0 0.00 0.00 0.00 48 1014.2
20260831233044 94 204 1.0 5.0 0.00 0.00 0.00 48 1014.3
20260831232516 94 63 0.0 5.0 0.00 0.00 0.00 48 1014.3
20260831232018 94 185 0.0 3.0 0.00 0.00 0.00 47 1014.2
20260831231534 94 329 0.0 6.0 0.00 0.00 0.00 47 1014.2
20260831231016 94 82 1.0 6.0 0.00 0.00 0.00 47 1014.1
20260831230518 94 58 1.0 5.0 0.00 0.00 0.00 46 1014.1
20260831230029 94 92 1.0 4.0 0.00 0.00 0.00 48 1014.1
20260831225516 93 195 1.0 3.0 0.00 0.00 0.00 52 1014.2
20260831225016 93 32 1.0 2.0 0.00 0.00 0.00 50 1014.2
20260831224509 93 352 0.0 2.0 0.00 0.00 0.00 51 1014.2
20260831224016 93 352 1.0 2.0 0.00 0.00 0.00 51 1014.2
20260831223518 93 313 1.0 4.0 0.00 0.00 0.00 50 1014.2
20260831223012 94 36 1.0 4.0 0.00 0.00 0.00 50 1014.1
20260831222521 94 215 0.0 3.0 0.00 0.00 0.00 48 1014.1
20260831222019 95 69 0.0 7.0 0.00 0.00 0.00 47 1014.2
20260831221532 95 57 2.0 7.0 0.00 0.00 0.00 46 1014.2
20260831221014 95 39 1.0 5.0 0.00 0.00 0.00 47 1014.2
20260831220519 96 126 1.0 4.0 0.00 0.00 0.00 48 1014.1
20260831220029 97 67 1.0 8.0 0.00 0.00 0.00 47 1014.2
20260831215514 98 317 0.0 8.0 0.00 0.00 0.00 44 1014.1
20260831215018 98 78 1.0 8.0 0.00 0.00 0.00 43 1014.2
20260831214535 98 184 0.0 6.0 0.00 0.00 0.00 46 1014.2
20260831214016 97 132 1.0 5.0 0.00 0.00 0.00 44 1014.3
20260831213519 97 53 1.0 5.0 0.00 0.00 0.00 45 1014.4
20260831213037 97 48 1.0 5.0 0.00 0.00 0.00 46 1014.5
20260831212526 98 51 1.0 5.0 0.00 0.00 0.00 46 1014.5
20260831212020 97 27 0.0 4.0 0.00 0.00 0.00 47 1014.6
20260831211536 98 50 2.0 5.0 0.00 0.00 0.00 47 1014.6
20260831211012 97 69 1.0 5.0 0.00 0.00 0.00 47 1014.7
20260831210518 95 70 1.0 3.0 0.00 0.00 0.00 51 1014.8
20260831210023 94 39 1.0 3.0 0.00 0.00 0.00 49 1014.9
20260831205514 94 64 2.0 5.0 0.00 0.00 0.00 50 1015.0
20260831205018 95 69 1.0 5.0 0.00 0.00 0.00 50 1015.0
20260831204536 96 36 2.0 5.0 0.00 0.00 0.00 49 1015.0
20260831204021 98 101 1.0 5.0 0.00 0.00 0.00 47 1015.1
20260831203518 99 212 2.0 7.0 0.00 0.00 0.00 46 1015.1
20260831203035 99 232 1.0 9.0 0.00 0.00 0.00 46 1015.1
20260831202516 99 200 4.0 9.0 0.00 0.00 0.00 44 1015.2
20260831202020 99 325 1.0 8.0 0.00 0.00 0.00 43 1015.3
20260831201541 98 60 3.0 7.0 0.00 0.00 0.00 43 1015.4
20260831201023 98 74 2.0 5.0 0.00 0.00 0.00 46 1015.4
20260831200510 98 27 1.0 6.0 0.00 0.00 0.00 45 1015.4
20260831200041 98 67 1.0 6.0 0.00 0.00 0.00 44 1015.4
20260831195519 98 328 0.0 5.0 0.00 0.00 0.00 48 1015.5
20260831195018 98 67 1.0 5.0 0.00 0.00 0.00 47 1015.5
20260831194612 98 136 1.0 5.0 0.00 0.00 0.00 49 1015.6
20260831194020 98 73 2.0 5.0 0.00 0.00 0.00 48 1015.6
20260831193522 97 136 2.0 5.0 0.00 0.00 0.00 49 1015.7
20260831193040 96 352 2.0 5.0 0.00 0.00 0.00 49 1015.8
20260831192520 94 352 1.0 3.0 0.00 0.00 0.00 51 1016.0
20260831192018 92 167 0.0 2.0 0.00 0.00 0.00 56 1016.1
20260831191542 92 89 0.0 2.0 0.00 0.00 0.00 55 1016.3
20260831191020 92 161 0.0 2.0 0.00 0.00 0.00 54 1016.3
20260831190515 93 119 0.0 5.0 0.00 0.00 0.00 55 1016.3
20260831190043 95 89 1.0 5.0 0.00 0.00 0.00 50 1016.3
20260831185522 96 47 1.0 5.0 0.00 0.00 0.00 52 1016.4
20260831185011 95 67 2.0 5.0 0.00 0.00 0.00 54 1016.5
20260831184602 93 35 1.0 3.0 0.00 0.00 0.00 55 1016.7
20260831184019 94 76 1.0 5.0 0.00 0.00 0.00 55 1016.7
20260831183514 94 34 1.0 5.0 0.00 0.00 0.00 55 1016.6
20260831183033 93 290 1.0 3.0 0.00 0.00 0.00 56 1016.8
20260831182516 92 63 0.0 5.0 0.00 0.00 0.00 57 1016.8
20260831182018 94 99 2.0 5.0 0.00 0.00 0.00 54 1017.0
20260831181531 94 290 2.0 5.0 0.00 0.00 0.00 56 1016.8
20260831181007 92 175 1.0 5.0 0.00 0.00 0.00 57 1016.9
20260831180510 92 49 1.0 5.0 0.00 0.00 0.00 57 1017.2
20260831180013 93 61 1.0 6.0 0.00 0.00 0.00 55 1017.2
20260831175510 94 284 2.0 6.0 0.00 0.00 0.00 53 1017.3
20260831175012 94 45 1.0 5.0 0.00 0.00 0.00 53 1017.3
20260831174520 94 92 1.0 5.0 0.00 0.00 0.00 54 1017.2
20260831174012 93 271 1.0 5.0 0.00 0.00 0.00 58 1017.4
20260831173504 91 258 0.0 3.0 0.00 0.00 0.00 61 1017.5
20260831173004 93 40 1.0 4.0 0.00 0.00 0.00 57 1017.6
20260831172522 93 23 1.0 4.0 0.00 0.00 0.00 57 1017.7